Weather in Roxas

Philippines     11°35′00″N   122°45′05″E
temp.,
°C
wind,
m/s
gust,
m/s
humid.,
%
clouds,
%
prec.,
mm/h
press.,
hPa
HPBL,
m
15 june, tue
tue1523:00+25sw118846 2.8 101137
02:00+24s128992 2.8 100946
05:00+24s229187 0.0 100956
08:00+28s357942 0.0 1010443
11:00+32ssw235917 0.0 10091190
14:00+32wnw235855 0.6 10081481
17:00+29n23777 1.9 1008336
20:00+27ne128211 2.1 1010146
16 june, wed
wed1623:00+26s118634 0.0 101135
02:00+25ssw22895 0.0 100947
05:00+25ssw12907 0.0 100946
08:00+28s1277100 0.0 1011348
11:00+32s1259100 0.0 10101275
14:00+32n3261100 0.1 10081236
17:00+28n248270 2.3 1009242
20:00+26e00860 3.8 101118
17 june, thu
thu1723:00+26s11881 0.6 101236
02:00+25ssw11901 0.7 101042
05:00+25ssw22917 0.4 101150
08:00+28ssw127767 0.4 1012343
11:00+31ssw226095 0.0 10111082
14:00+32ene125851 0.1 10091314
17:00+29nnw2378100 1.1 1009270
20:00+27n128314 1.6 1011135
18 june, fri
fri1823:00+26sw118716 0.3 101220
02:00+25s119370 2.6 101034
05:00+25ssw119275 0.0 101041
08:00+27ssw128399 0.0 1011282
11:00+32ssw1261100 0.0 10101115
14:00+33nnw135897 0.1 10081433
17:00+28n238186 2.1 1008222
20:00+26sse228696 3.9 101053
19 june, sat
sat1923:00+25sw1189100 0.7 101130
02:00+25s2292100 0.8 100863
05:00+24ssw2392100 0.0 100986
08:00+27s2379100 0.0 1010380
11:00+31sw2360100 0.0 10091072
14:00+32w2361100 0.3 10071096
17:00+29sse2480100 2.9 1007254
20:00+26ssw1387100 3.1 1008178